Temp
-5 -5 -5 -6 -6 -6 -6 -5 -7 -7 -7 -7 -6 -7 -8 -6 -4 -5 -5 -6 -7 -8 -6 -7 -6 -6 -6 -6 -6 -6 -6 -6 -6 -5 -5 -6 -6 -6 -6 -6 -6 -6 -5 -6
-6 -5 -5 -6 -5 -5 -6 -6 -6 -6 -6 -6 -6 -6 -7 -6 -6 -5 -5 -5 -6 -6 -6 -6 -6 -6 -6 -6 -6 -6 -5 -5 -5 -5 -5 -5 -6 -6 -6 -6 -6 -6 -6 -6
-6 -5 -6 -5 -5 -5 -6 -6 -6 -5 -5 -6 -5 -6 -6 -6 -6 -5 -5 -5 -6 -5 -6 -6 -6 -5 -5 -5 -6 -5 -5 -5 -5 -5 -5 -5 -6 -6 -6 -5 -5 -5 -5 -6
-6 -6 -6 -6 -6 -6 -6 -7 -6 -6 -6 -6 -7 -6 -6 -6 -6 -6 -5 -5 -6 -5 -5 -5 -6 -5 -5 -5 -5 -5 -5 -5 -5 -5 -5 -5 -5 -5 -6 -6 -6 -6 -6 -5
-6 -6 -6 -7 -7 -7 -7 -6 -6 -6 -7 -7 -7 -7 -7 -7 -5 -6 -5 -5 -5 -6 -5 -5 -6 -6 -5 -5 -5 -5 -5 -5 -5 -5 -5 -5 -5 -5 -6 -7 -6 -6 -6 -5
-7 -7 -7 -8 -8 -8 -7 -7 -7 -7 -7 -7 -7 -7 -6 -6 -7 -6 -6 -6 -5 -5 -6 -5 -5 -6 -6 -5 -5 -4 -4 -5 -5 -5 -5 -5 -5 -6 -6 -6 -6 -6 -6 -6
-8 -8 -8 -7 -8 -8 -8 -7 -7 -7 -7 -7 -7 -7 -7 -7 -7 -7 -7 -7 -5 -5 -5 -5 -6 -6 -6 -6 -5 -4 -4 -5 -4 -4 -5 -5 -5 -6 -6 -6 -6 -6 -6 -6
-8 -8 -8 -8 -8 -8 -8 -7 -7 -8 -7 -7 -7 -7 -7 -7 -8 -7 -8 -8 -6 -5 -5 -6 -6 -6 -6 -6 -5 -5 -5 -5 -5 -4 -5 -5 -5 -6 -6 -6 -6 -6 -6 -6
-8 -8 -8 -8 -8 -9 -9 -9 -8 -7 -8 -7 -7 -7 -7 -8 -8 -8 -8 -8 -8 -6 -6 -6 -7 -7 -6 -6 -6 -5 -5 -5 -5 -4 -5 -5 -5 -5 -5 -5 -5 -5 -6 -6
-8 -8 -9 -9 -9 -9 -9 -9 -9 -8 -7 -7 -8 -8 -8 -8 -8 -8 -8 -8 -8 -7 -7 -7 -7 -7 -7 -6 -6 -5 -5 -5 -5 -5 -5 -5 -5 -5 -5 -5 -5 -5 -5 -6
-8 -8 -9 -9 -8 -8 -9 -8 -9 -9 -9 -8 -8 -8 -8 -8 -8 -8 -8 -8 -8 -7 -8 -8 -8 -8 -8 -7 -7 -6 -6 -6 -6 -5 -5 -5 -5 -5 -5 -5 -5 -5 -5 -6
-9 -9 -8 -9 -9 -8 -7 -8 -8 -8 -9 -8 -9 -8 -9 -8 -8 -8 -8 -8 -8 -8 -8 -8 -8 -8 -8 -8 -7 -7 -6 -6 -6 -6 -6 -5 -5 -5 -5 -6 -5 -5 -5 -5
-8 -7 -8 -8 -9 -9 -9 -9 -8 -7 -8 -8 -8 -8 -8 -8 -8 -9 -9 -7 -8 -8 -8 -7 -8 -8 -8 -9 -9 -8 -7 -7 -6 -7 -6 -6 -6 -5 -5 -5 -7 -7 -5 -5
-7 -8 -7 -7 -8 -8 -9 -9 -9 -9 -9 -8 -8 -7 -7 -7 -7 -7 -9 -8 -8 -9 -8 -7 -8 -7 -8 -9 -9 -8 -8 -9 -9 -8 -7 -7 -7 -7 -6 -6 -6 -7 -7 -6
-8 -8 -8 -8 -7 -8 -8 -8 -8 -9 -9 -9 -9 -8 -8 -7 -7 -6 -8 -9 -8 -8 -9 -8 -8 -8 -8 -8 -9 -8 -7 -8 -9 -10 -9 -7 -7 -7 -7 -7 -7 -7 -7 -7
-7 -8 -7 -8 -8 -8 -8 -8 -8 -9 -9 -9 -9 -9 -9 -8 -8 -7 -7 -7 -8 -9 -9 -8 -9 -8 -8 -8 -8 -9 -9 -7 -8 -9 -11 -9 -8 -7 -7 -7 -7 -7 -7 -7
-8 -7 -7 -7 -8 -8 -8 -8 -8 -9 -9 -9 -9 -9 -9 -9 -9 -9 -9 -8 -9 -9 -10 -9 -9 -9 -9 -9 -7 -8 -9 -9 -9 -9 -10 -10 -9 -8 -8 -8 -8 -8 -7 -8
-7 -7 -8 -8 -8 -9 -9 -9 -9 -9 -10 -10 -10 -10 -10 -10 -10 -10 -10 -9 -9 -10 -10 -10 -10 -10 -9 -9 -8 -7 -8 -9 -9 -9 -10 -10 -9 -9 -8 -8 -8 -8 -8 -8
-8 -8 -8 -8 -9 -9 -9 -9 -10 -10 -10 -11 -11 -11 -11 -11 -11 -10 -11 -12 -11 -10 -10 -10 -10 -10 -10 -10 -9 -7 -6 -9 -9 -8 -9 -9 -9 -9 -8 -8 -8 -8 -8 -9
-8 -8 -9 -9 -9 -9 -9 -10 -10 -10 -11 -12 -11 -11 -12 -11 -11 -12 -12 -12 -12 -12 -11 -10 -10 -12 -11 -9 -9 -8 -9 -9 -3 -8 -8 -8 -9 -9 -9 -9 -8 -9 -9 -9
-8 -9 -9 -10 -10 -9 -10 -10 -10 -10 -11 -11 -11 -11 -12 -12 -12 -12 -12 -12 -13 -12 -12 -12 -12 -11 -11 -11 -11 -10 -10 -6 -8 -8 -7 -7 -8 -8 -9 -9 -9 -9 -8 -8
-9 -10 -10 -10 -10 -10 -10 -10 -10 -10 -11 -11 -11 -11 -11 -12 -12 -12 -12 -12 -12 -12 -12 -12 -12 -11 -11 -11 -11 -11 -10 -9 -8 -9 -9 -9 -7 -8 -9 -9 -9 -9 -9 -9
-10 -10 -10 -10 -10 -10 -10 -10 -10 -10 -10 -10 -11 -11 -11 -12 -12 -12 -12 -12 -12 -12 -12 -12 -12 -10 -11 -12 -11 -10 -11 -10 -10 -10 -10 -10 -9 -9 -9 -9 -9 -9 -10 -10
-10 -11 -11 -11 -11 -11 -10 -11 -11 -10 -11 -11 -11 -10 -10 -11 -11 -12 -12 -12 -12 -12 -12 -12 -11 -11 -11 -11 -11 -11 -10 -9 -10 -10 -10 -9 -9 -9 -10 -10 -9 -9 -9 -9
-10 -10 -11 -11 -11 -11 -12 -12 -11 -12 -12 -12 -12 -12 -11 -10 -11 -11 -12 -12 -12 -12 -12 -12 -12 -11 -11 -11 -11 -11 -11 -11 -10 -10 -10 -11 -11 -10 -9 -9 -10 -9 -9 -9
-11 -11 -11 -12 -11 -12 -12 -12 -12 -12 -12 -12 -12 -12 -11 -11 -10 -10 -11 -12 -12 -12 -12 -12 -12 -11 -11 -11 -11 -10 -11 -12 -12 -12 -12 -12 -11 -11 -10 -10 -10 -10 -10 -10
Height
5930 5930 5930 5929 5928 5928 5926 5924 5923 5924 5924 5923 5923 5923 5923 5919 5919 5920 5920 5919 5918 5921 5915 5910 5909 5910 5910 5912 5913 5913 5911 5914 5916 5919 5921 5922 5924 5926 5927 5928 5929 5931 5934 5937
5929 5927 5928 5928 5928 5927 5924 5923 5923 5923 5923 5921 5921 5922 5921 5921 5916 5917 5919 5919 5918 5919 5915 5912 5911 5911 5913 5912 5912 5913 5913 5915 5916 5918 5920 5922 5923 5924 5926 5926 5927 5928 5931 5934
5926 5926 5926 5926 5926 5924 5922 5921 5921 5923 5921 5920 5919 5918 5918 5919 5919 5916 5915 5917 5916 5915 5915 5914 5912 5912 5912 5912 5913 5914 5915 5916 5916 5917 5918 5920 5922 5922 5923 5924 5925 5926 5927 5930
5924 5922 5922 5921 5920 5918 5919 5919 5918 5921 5920 5918 5918 5918 5918 5919 5919 5918 5917 5917 5917 5917 5915 5915 5914 5913 5912 5913 5912 5912 5914 5915 5916 5916 5916 5918 5919 5920 5922 5923 5924 5924 5924 5925
5919 5919 5917 5917 5916 5915 5915 5915 5916 5917 5918 5918 5918 5918 5919 5917 5918 5918 5918 5917 5918 5918 5917 5915 5915 5914 5914 5914 5913 5912 5912 5913 5914 5915 5915 5916 5917 5918 5919 5920 5921 5922 5923 5923
5916 5915 5914 5913 5914 5913 5912 5913 5912 5913 5915 5918 5917 5917 5917 5916 5916 5915 5915 5916 5917 5919 5918 5917 5916 5915 5914 5913 5914 5912 5912 5911 5911 5912 5913 5914 5915 5915 5915 5917 5919 5919 5921 5921
5914 5913 5913 5913 5913 5912 5910 5910 5911 5912 5914 5915 5915 5915 5915 5916 5913 5914 5914 5913 5914 5915 5915 5915 5915 5915 5913 5912 5912 5912 5911 5910 5910 5910 5910 5911 5911 5910 5911 5915 5917 5918 5918 5918
5912 5913 5913 5913 5912 5909 5909 5909 5910 5911 5913 5915 5916 5916 5914 5913 5911 5913 5910 5910 5909 5911 5913 5913 5913 5913 5912 5911 5911 5910 5908 5908 5907 5907 5907 5907 5909 5910 5911 5912 5914 5914 5915 5916
5910 5911 5910 5910 5909 5910 5909 5909 5909 5910 5910 5912 5912 5914 5912 5911 5913 5912 5911 5907 5907 5909 5912 5912 5911 5912 5911 5909 5907 5907 5906 5906 5905 5904 5904 5905 5906 5907 5908 5909 5909 5910 5911 5911
5908 5910 5909 5908 5908 5907 5906 5906 5907 5907 5909 5909 5910 5911 5907 5905 5903 5903 5902 5904 5903 5905 5907 5909 5909 5909 5908 5907 5906 5905 5905 5905 5905 5904 5902 5901 5902 5903 5904 5905 5906 5907 5908 5908
5905 5908 5911 5908 5905 5904 5905 5902 5901 5903 5904 5902 5904 5906 5902 5900 5899 5900 5900 5901 5900 5900 5902 5904 5906 5906 5906 5904 5904 5903 5902 5902 5902 5902 5903 5902 5899 5896 5897 5900 5902 5903 5904 5904
5903 5904 5906 5907 5903 5902 5899 5900 5898 5898 5902 5899 5897 5897 5895 5892 5892 5893 5895 5896 5895 5894 5895 5898 5897 5901 5902 5902 5901 5901 5901 5901 5900 5900 5899 5899 5900 5899 5896 5892 5895 5898 5900 5900
5897 5899 5900 5902 5901 5898 5896 5893 5892 5894 5897 5894 5891 5889 5887 5884 5883 5885 5888 5889 5885 5885 5888 5888 5889 5892 5891 5888 5894 5895 5897 5897 5897 5896 5896 5895 5896 5896 5895 5896 5890 5888 5894 5896
5896 5896 5895 5895 5896 5893 5892 5892 5890 5889 5888 5888 5884 5882 5882 5881 5880 5881 5883 5880 5880 5878 5880 5881 5880 5877 5878 5881 5885 5884 5876 5883 5892 5892 5891 5890 5889 5889 5891 5891 5892 5889 5886 5890
5891 5889 5889 5888 5887 5885 5886 5887 5884 5883 5881 5878 5875 5875 5874 5875 5874 5875 5877 5873 5871 5874 5873 5871 5871 5872 5865 5860 5868 5879 5879 5879 5873 5879 5889 5887 5886 5885 5885 5885 5887 5887 5885 5884
5881 5882 5883 5882 5880 5877 5876 5877 5875 5872 5870 5866 5862 5860 5860 5861 5863 5863 5865 5864 5863 5864 5864 5860 5859 5861 5856 5846 5847 5861 5869 5868 5867 5858 5874 5882 5880 5880 5879 5879 5880 5882 5882 5880
5874 5873 5874 5874 5873 5870 5869 5868 5866 5863 5858 5856 5851 5849 5847 5848 5848 5846 5847 5848 5847 5849 5854 5851 5850 5850 5847 5848 5847 5847 5860 5863 5861 5856 5855 5873 5875 5874 5873 5873 5875 5875 5876 5876
5867 5868 5867 5866 5863 5863 5863 5862 5859 5855 5848 5845 5843 5840 5836 5832 5831 5828 5826 5828 5832 5832 5834 5835 5834 5833 5834 5831 5838 5836 5844 5839 5842 5841 5850 5863 5864 5867 5867 5868 5870 5873 5873 5871
5863 5862 5860 5859 5858 5857 5856 5854 5851 5845 5840 5836 5831 5828 5825 5818 5811 5809 5806 5807 5808 5815 5820 5818 5817 5815 5817 5819 5812 5814 5811 5822 5826 5815 5844 5852 5855 5857 5859 5862 5863 5864 5865 5866
5856 5855 5854 5852 5851 5849 5849 5846 5841 5835 5831 5827 5822 5816 5813 5808 5802 5797 5793 5791 5792 5794 5800 5805 5802 5804 5800 5802 5799 5800 5794 5775 5761 5808 5821 5831 5836 5844 5849 5851 5852 5856 5858 5860
5849 5848 5846 5844 5843 5842 5840 5838 5833 5828 5824 5816 5811 5805 5800 5796 5791 5785 5783 5779 5776 5778 5785 5788 5788 5793 5793 5793 5790 5798 5789 5784 5799 5791 5806 5797 5818 5821 5835 5840 5844 5845 5848 5851
5845 5842 5840 5837 5836 5835 5832 5828 5824 5820 5813 5808 5802 5795 5790 5784 5780 5775 5770 5766 5764 5765 5770 5771 5777 5779 5782 5779 5781 5786 5791 5791 5793 5804 5807 5804 5811 5807 5815 5826 5831 5835 5836 5840
5839 5838 5835 5832 5831 5826 5823 5819 5815 5809 5802 5796 5790 5784 5778 5773 5769 5764 5761 5758 5755 5752 5752 5756 5759 5766 5766 5763 5761 5772 5780 5785 5785 5792 5798 5805 5805 5806 5809 5814 5816 5818 5824 5825
5833 5830 5828 5825 5822 5817 5814 5809 5805 5798 5792 5785 5778 5771 5765 5762 5759 5755 5751 5749 5747 5743 5740 5741 5745 5751 5754 5754 5752 5757 5761 5768 5772 5778 5783 5787 5794 5800 5800 5805 5808 5812 5812 5815
5825 5822 5820 5818 5815 5811 5807 5803 5799 5792 5786 5778 5770 5759 5752 5749 5748 5745 5742 5739 5738 5737 5734 5732 5733 5733 5736 5740 5740 5740 5746 5753 5758 5764 5769 5774 5780 5784 5788 5791 5796 5799 5802 5804
5818 5815 5813 5811 5809 5806 5802 5799 5796 5789 5782 5774 5765 5758 5746 5739 5737 5735 5733 5731 5728 5727 5725 5722 5720 5721 5725 5728 5730 5730 5733 5738 5745 5752 5757 5759 5763 5769 5771 5776 5780 5783 5786 5789
Wind_Speed
3 6 4 3 2 5 6 6 4 6 11 15 13 3 1 10 6 9 11 9 9 6 3 5 5 2 2 3 6 8 5 17 18 17 15 14 12 14 13 12 11 12 11 12
7 10 7 7 9 8 8 10 8 7 9 11 10 5 7 7 7 6 7 10 6 7 9 7 4 3 2 4 4 7 8 12 13 14 14 16 14 13 14 16 16 15 12 14
10 12 12 13 14 11 11 13 13 11 10 5 7 2 6 2 2 5 7 9 5 4 10 10 7 6 2 1 4 5 8 11 11 14 15 16 16 16 16 18 17 14 14 11
12 17 17 18 17 16 13 14 16 10 4 4 7 2 1 3 4 8 6 7 10 6 4 9 8 7 7 2 3 5 6 8 11 12 13 14 15 17 17 15 13 14 14 16
17 16 16 11 10 13 16 14 13 9 7 8 6 8 5 5 3 3 1 8 9 3 3 5 8 6 5 5 3 4 6 9 10 11 12 12 13 14 15 15 15 15 14 14
11 13 13 6 9 13 11 9 7 7 11 10 7 4 3 4 12 12 16 18 8 5 8 4 2 3 6 6 3 2 4 8 10 12 12 12 14 12 16 17 17 16 16 17
4 9 12 8 3 7 9 6 5 12 14 11 4 3 11 14 13 16 20 21 7 5 3 6 5 4 6 8 8 5 2 4 9 11 12 11 10 7 17 15 16 17 16 16
9 11 5 2 7 10 9 5 6 11 9 7 4 3 14 16 3 6 5 6 15 10 5 4 8 10 9 9 10 9 5 4 7 9 10 11 12 12 13 14 16 17 12 17
7 2 4 5 11 10 14 14 4 13 3 10 2 1 9 20 9 9 9 14 21 17 10 9 9 11 13 11 13 12 9 7 7 7 9 10 12 14 15 16 16 16 18 18
5 4 2 4 3 7 5 2 1 3 11 9 2 5 10 9 22 20 21 22 25 24 19 13 11 14 18 14 14 14 13 12 10 9 9 12 12 11 11 12 15 16 16 17
10 5 8 8 12 10 10 11 11 11 12 15 12 8 14 15 17 16 19 22 29 29 28 17 17 14 19 17 16 14 14 13 12 12 11 11 13 14 12 11 11 11 13 17
20 18 11 18 21 21 22 19 18 18 16 21 16 19 20 29 28 28 25 30 35 37 29 22 24 22 20 18 18 19 15 14 13 13 13 13 12 13 13 12 10 11 12 14
21 19 15 16 27 29 26 28 29 24 17 29 29 32 33 36 29 28 30 29 30 36 34 28 31 32 27 26 20 14 16 18 16 13 14 14 14 15 14 13 9 9 10 11
20 22 23 22 23 32 36 36 35 33 35 32 36 37 40 44 45 40 33 31 34 36 36 31 38 39 46 33 25 21 21 17 17 17 16 17 16 16 17 16 15 11 9 10
15 21 22 23 25 28 30 32 37 38 39 40 43 45 51 50 51 51 42 37 40 38 41 42 37 46 54 37 32 30 27 24 22 16 22 20 19 18 17 14 15 15 12 11
23 25 24 25 28 32 34 35 37 40 43 46 50 52 51 50 59 58 56 55 56 43 37 35 45 48 39 55 45 38 42 38 32 28 24 27 22 22 20 18 15 15 13 11
28 27 23 23 24 28 30 31 28 29 33 38 44 49 53 56 58 59 61 65 60 53 43 45 43 50 49 58 50 59 34 41 38 32 30 34 27 25 23 18 18 16 14 13
25 23 25 24 22 17 16 16 22 28 31 34 35 38 38 40 43 56 67 69 64 59 59 54 52 52 54 55 60 63 65 52 44 33 36 37 32 29 27 22 20 20 17 13
22 22 21 18 17 17 18 20 25 29 32 33 35 36 38 43 49 53 54 59 67 68 64 61 59 59 62 66 75 69 58 69 57 34 41 41 34 33 32 29 25 24 23 20
20 17 17 17 18 19 17 25 31 35 33 32 35 36 38 43 45 48 53 53 55 61 59 63 61 52 49 67 71 64 54 44 36 62 50 45 39 37 37 35 33 29 26 26
17 16 18 19 22 24 27 29 33 34 33 31 32 35 39 42 44 43 41 43 50 45 52 55 59 56 56 60 59 49 40 39 28 37 49 36 39 31 31 32 30 30 29 32
15 17 20 25 27 29 29 33 34 32 31 33 35 37 37 36 39 40 42 42 38 36 40 44 35 43 49 55 53 39 31 31 27 33 46 25 33 30 28 31 32 33 34 34
16 20 25 30 31 33 32 33 30 34 37 39 40 41 38 37 35 36 35 36 34 35 37 40 39 37 43 45 47 42 44 47 47 36 33 38 38 36 29 33 37 36 40 38
17 22 24 27 27 29 31 32 31 37 43 45 46 45 42 37 33 35 34 32 31 31 30 36 36 36 36 37 41 38 41 46 46 41 42 45 44 43 41 45 44 42 39 43
22 25 23 22 24 27 29 31 32 35 39 40 40 42 41 40 35 31 29 32 31 31 31 31 34 37 38 40 41 41 37 40 45 48 48 50 53 50 52 49 52 50 50 51
23 23 22 22 23 23 27 27 28 29 31 34 35 36 37 34 32 30 29 29 28 30 29 31 29 28 33 37 41 41 41 41 45 47 50 52 57 58 58 60 59 57 57 56
Wind_Direction
229 251 247 278 307 296 311 314 333 301 282 297 320 338 128 315 5 56 84 78 81 26 59 57 6 46 119 178 215 238 223 192 209 211 209 210 223 210 212 221 228 236 229 232
243 261 264 275 265 283 298 324 305 316 298 306 315 328 262 271 305 31 44 75 76 77 80 73 359 19 224 165 181 228 220 208 217 216 211 217 232 220 208 221 226 236 241 224
262 266 271 272 263 279 299 300 302 327 337 335 342 358 243 73 84 2 24 54 47 63 84 76 55 9 358 264 190 199 220 210 212 224 213 208 221 223 215 221 230 229 246 230
263 273 282 291 299 298 286 282 297 328 329 66 12 345 55 263 92 21 28 51 48 341 73 82 67 31 30 329 268 231 218 225 227 213 211 210 220 224 224 223 221 228 234 236
272 272 270 272 291 287 297 297 290 285 136 67 41 129 79 294 202 96 53 27 25 286 343 79 70 31 16 23 280 250 242 245 237 228 229 213 215 226 227 225 226 219 224 237
295 281 266 284 322 318 306 295 275 210 159 121 62 14 192 38 10 17 356 342 346 1 283 304 27 6 349 339 348 315 245 240 244 236 229 228 220 231 226 215 223 229 227 230
208 249 284 306 6 343 332 314 234 190 178 145 115 53 347 316 12 348 333 321 300 333 299 310 331 321 314 315 314 291 326 258 246 237 235 231 230 261 201 207 216 223 231 237
243 256 260 73 44 37 3 352 263 189 217 144 89 32 301 309 148 311 304 320 307 316 328 311 315 314 304 302 302 290 273 284 260 249 240 235 222 202 202 207 211 222 239 237
249 215 123 87 54 35 43 22 273 215 188 173 105 12 352 273 191 216 238 278 281 294 297 313 294 300 294 301 301 298 273 257 253 248 241 237 229 220 214 216 227 232 239 252
247 184 213 142 27 289 181 175 169 221 202 213 161 319 284 256 203 209 215 258 261 273 269 282 302 285 289 292 297 297 289 271 256 234 228 226 223 223 219 221 227 229 231 238
297 313 225 255 234 212 240 216 223 212 224 226 208 261 279 269 271 249 244 245 251 261 264 286 288 283 273 287 291 287 283 275 267 255 242 242 226 210 209 218 233 232 223 229
266 271 259 226 258 265 265 257 245 228 218 229 236 244 244 252 250 257 254 274 249 255 251 252 256 261 275 275 285 285 276 269 266 263 252 243 244 240 224 207 224 237 233 236
267 278 269 215 234 249 252 266 272 268 243 230 230 234 241 247 256 258 267 271 254 251 256 241 242 247 238 221 238 261 272 265 258 256 259 247 241 239 236 233 210 201 218 227
286 282 278 267 247 242 251 259 266 269 271 262 248 243 245 248 253 257 259 258 246 245 246 255 253 231 233 219 220 223 209 227 271 270 260 254 243 231 234 230 231 232 213 217
278 258 264 271 271 266 262 260 258 258 263 268 269 267 266 262 258 256 256 255 266 236 250 251 253 252 265 210 206 226 231 225 213 219 265 255 247 240 230 224 227 229 230 228
280 272 267 268 268 269 271 271 270 267 265 265 263 265 265 264 261 259 259 258 257 255 258 253 250 255 263 267 205 204 245 226 218 203 213 244 234 230 224 220 219 224 225 231
275 280 284 281 282 278 277 283 284 281 277 273 271 273 274 271 265 261 261 257 261 266 252 251 247 248 263 259 251 256 251 219 219 207 199 226 223 221 218 214 223 229 229 237
277 283 286 289 284 278 288 305 304 294 291 287 283 283 286 288 280 269 262 258 259 263 262 258 263 267 262 268 263 261 283 209 214 201 201 218 222 226 228 222 226 238 243 246
277 278 275 274 284 288 306 310 316 309 295 293 292 291 286 287 292 285 275 269 262 256 258 266 262 266 267 275 274 279 266 256 221 190 205 214 217 226 234 234 233 240 246 251
272 271 274 284 287 296 298 316 312 311 298 295 291 287 285 284 289 287 284 276 277 270 261 262 270 274 280 275 277 277 265 293 161 198 203 207 210 218 229 235 236 237 245 254
272 281 290 290 292 302 305 306 309 312 311 308 301 290 285 286 288 291 286 281 277 275 265 268 271 275 276 271 278 281 292 291 243 191 206 215 208 211 220 233 243 245 250 255
278 282 283 284 293 301 305 309 313 317 311 307 302 299 294 292 287 290 294 291 282 273 258 260 269 270 273 268 263 263 265 262 237 240 217 236 229 223 213 230 241 245 249 253
273 274 275 284 294 297 302 303 309 313 316 314 311 306 301 299 290 288 288 293 290 281 275 265 259 265 266 261 264 264 257 257 265 261 268 251 249 255 238 239 248 237 250 253
287 279 281 292 296 301 306 311 317 319 317 315 312 307 302 301 300 290 291 286 286 284 273 268 248 261 257 257 258 257 259 259 258 257 259 257 244 245 247 248 250 252 252 251
290 288 296 297 304 310 310 316 318 318 316 316 320 316 303 297 297 300 297 288 285 280 276 269 262 256 252 253 258 258 252 249 251 249 243 239 240 246 251 252 252 258 257 255
287 289 297 299 305 307 311 308 306 317 317 312 319 323 320 306 302 304 295 293 292 281 280 276 269 264 261 256 253 254 254 250 242 237 239 242 243 245 244 248 252 254 255 258